Tracking 30262 objects as of 17-Feb-2025
HD Live streaming from Space Station
objects crossing your sky now

LANDSAT 3

Track LANDSAT 3 now!
10-day predictions
LANDSAT 3 is classified as:


NORAD ID: 10702
Int'l Code: 1978-026A
Perigee: 900.4 km
Apogee: 922.8 km
Inclination: 99.0 °
Period: 103.1 minutes
Semi major axis: 7282 km
RCS: 3.0427 m2 (large)
Launch date: March 5, 1978
Source: United States (US)
Launch site: AIR FORCE WESTERN TEST RANGE (AFWTR)
Your satellite tracking list
Your tracking list is empty




NASA's NSSDC Master Catalog

Two Line Element Set (TLE):
1 10702U 78026A   25047.91186940  .00000040  00000-0  59994-4 0  9993
2 10702  99.0004   6.6116 0015349  40.1323  27.8870 13.96925288393728
Source of the keplerian elements: AFSPC